User: anonymous   Login
Location: Byszew
(52.1813°N, 19.2693°E)
Time: 17:07:43
(UTC+00:00)
Language:

Meteor 2-4 Rocket - Orbit

View from above orbital plane
View from above orbital plane
View from above satellite
View from above satellite

Ground track
Ground track

The orbit data is extracted from the following two-line orbital elements,

1 11289U 79021B   21125.49050214 -.00000047  00000-0 -32044-4 0  9996
2 11289  81.2489 220.3821 0075903 167.9848 192.3158 14.11620777170676
Epoch (UTC): 05 May 2021 11:46:19
Eccentricity: 0.0075903
inclination: 81.2489°
perigee height: 799 km
apogee height: 909 km
right ascension of ascending node: 220.3821°
argument of perigee: 167.9848°
revolutions per day: 14.11620777
mean anomaly at epoch: 192.3158°
orbit number at epoch: 17067

The dashed part of the orbit path shows where the satellite is in the earth's shadow,  

DLR